軌道要素
Epoch 2022 Jan. 21.0 TT = JDT 2459600.5
T 2022 Apr. 27.87706 TT Rudenko
q 3.7559487 (2000.0) P Q
z +0.0001629 Peri. 75.41529 +0.04187640 +0.31881900
+/-0.0000015 Node 107.33755 -0.12784094 -0.93822154
e 0.9993881 Incl. 97.27081 +0.99091022 -0.13451684
From 499 observations 2020 Sept. 25-2022 Jan. 30, mean residual 0".4.
|